* Astronomy

Members Login
Username 
 
Password 
    Remember Me  
Post Info TOPIC: Asteroid 2012 KB6


L

Posts: 131433
Date:
Asteroid 2012 KB6
Permalink  
 


Orbital elements:
2012 KB6                                                 Earth MOID = 0.0572 AU
Epoch 2012 Mar. 14.0 TT = JDT 2456000.5                 MPC
M 356.53649              (2000.0)            P               Q
n   0.62221122     Peri.  105.32076     -0.97215877     -0.19810445
a   1.3588687      Node    63.38902     +0.12202091     -0.88394632
e   0.3128607      Incl.    8.04643     +0.20004557     -0.42354873
P   1.58           H   25.0           G   0.15           U   8

MPEC 2012 - K23



__________________
Page 1 of 1  sorted by
 
Quick Reply

Please log in to post quick replies.



Create your own FREE Forum
Report Abuse
Powered by ActiveBoard